Location: Adrasan
(36.3319°N, 30.4314°E)
Time: 03:30:33
(UTC+00:00)

COSMO-SKYMED 1 - Pass Details

Date: 15 October 2025
Orbit: 580 x 582 km, 97.9° (Epoch: 13 November)

Event Time Altitude Azimuth Distance (km) Brightness Sun altitude
Rises 02:33:54 0° 134° (SE) 2,801 6.6 -19.2°
Reaches altitude 10° 02:36:26 10° 118° (ESE) 1,905 5.9 -18.7°
Maximum altitude 02:39:33 21° 69° (ENE) 1,335 5.1 -18.0°
Drops below altitude 10° 02:42:40 10° 20° (NNE) 1,913 5.3 -17.4°
Sets 02:45:21 0° 4° (N) 2,863 6.1 -16.9°
